User: anonymous   Login
Location: Caltech
(34.1382°N, 118.1253°W)
Time: 14:27:43
(UTC-08:00)
Language:

Oscar 10/S400 - Orbit

View from above orbital plane
View from above orbital plane
View from above satellite
View from above satellite

Ground track
Ground track

The orbit data is extracted from the following two-line orbital elements,

1 14129U 83058B   16043.22331991 -.00000038  00000-0  00000+0 0  9996
2 14129  26.4803 112.9140 6028528 173.8611 316.4202  2.05868252217701
Epoch (UTC): 12 February 2016 05:21:34
Eccentricity: 0.6028528
inclination: 26.4803°
perigee height: 3988 km
apogee height: 35459 km
right ascension of ascending node: 112.9140°
argument of perigee: 173.8611°
revolutions per day: 2.05868252
mean anomaly at epoch: 316.4202°
orbit number at epoch: 21770

The dashed part of the orbit path shows where the satellite is in the earth's shadow,  

DLR